Weather reports worldwide

Advertisment
Eindhoven, Netherlands (6370): temperature & dewpoint: 09.12.2019 01:00:00 - 15.12.2019 01:00:00 (CET)Eindhoven, Netherlands (6370): temperature 5cm: 09.12.2019 01:00:00 - 15.12.2019 01:00:00 (CET)Eindhoven, Netherlands (6370): wind speed & gusts: 09.12.2019 01:00:00 - 15.12.2019 01:00:00 (CET)Eindhoven, Netherlands (6370): wind direction: 09.12.2019 01:00:00 - 15.12.2019 01:00:00 (CET)Eindhoven, Netherlands (6370): reduced air pressure: 09.12.2019 01:00:00 - 15.12.2019 01:00:00 (CET)Eindhoven, Netherlands (6370): visibility: 09.12.2019 01:00:00 - 15.12.2019 01:00:00 (CET)Eindhoven, Netherlands (6370): precipitation: 09.12.2019 01:00:00 - 15.12.2019 01:00:00 (CET)
Date & Time tt [°C] td [°C] tt 5cm [°C] ff [km/h] ff [kn] fx [km/h] fx [kn] dd ppp [hPa] vv [km] rr [mm]
15.12.2019 01:00:00 6,4 3,1 5,5 18 10 29 16 S 995,3 10 0,0
15.12.2019 00:00:00 6,1 3,1 5,2 21 11 29 16 S 997,0 10 0,0
14.12.2019 23:00:00 5,4 2,1 4,5 16 9 22 12 S 997,7 10 0,0
14.12.2019 22:00:00 5,2 1,4 4,2 16 9 25 14 SSW 998,4 10 0,0
14.12.2019 21:00:00 5,0 0,8 4,0 22 12 32 18 SW 998,4 10 0,0
14.12.2019 20:00:00 5,1 1,1 3,9 22 12 32 18 SW 998,0 10 0,0
14.12.2019 19:00:00 5,5 0,2 4,4 26 14 47 25 WSW 996,9 10 0,0
14.12.2019 18:00:00 6,5 0,4 5,3 34 18 61 33 WSW 995,7 10 0,0
14.12.2019 17:00:00 6,8 1,8 6,0 37 20 61 33 WSW 993,8 10 0,1
14.12.2019 16:00:00 7,0 4,6 6,3 31 17 61 33 SW 992,1 10 0,0
14.12.2019 15:00:00 6,4 4,8 6,2 29 16 50 27 SSW 991,7 10 0,3
14.12.2019 14:00:00 6,9 3,1 6,5 29 16 65 35 SSW 992,1 10 0,0
14.12.2019 13:00:00 7,2 3,0 6,9 24 13 40 21 SW 992,0 10 0,0
14.12.2019 12:00:00 6,8 2,8 6,2 28 15 43 23 WSW 991,9 10 0,0
14.12.2019 11:00:00 5,9 3,6 5,1 28 15 54 29 WSW 990,7 10 2,2
14.12.2019 10:00:00 5,0 4,0 4,8 24 13 43 23 WSW 989,7 4,4 3,5
14.12.2019 09:00:00 5,0 3,5 4,7 34 18 58 31 WSW 988,0 3,0 0,6
14.12.2019 08:00:00 4,8 3,5 4,0 22 12 43 23 WSW 986,4 10 0,0
14.12.2019 07:00:00 4,9 3,9 4,3 15 8 29 16 W 984,6 10 0,2
14.12.2019 06:00:00 4,9 4,3 4,6 9 5 18 10 WNW 982,8 7 1,2
14.12.2019 05:00:00 4,7 4,4 4,6 4 2 14 8 NW 981,3 5 1,5
14.12.2019 04:00:00 4,9 4,1 4,7 11 6 25 14 S 981,2 8 1,3
14.12.2019 03:00:00 5,3 3,5 5,0 16 9 36 19 S 982,2 9 0,0
14.12.2019 02:00:00 5,5 2,9 5,0 21 11 32 18 SSW 983,0 10 0,0
14.12.2019 01:00:00 5,5 2,9 4,9 24 13 36 19 SSW 983,5 10 0,0
14.12.2019 00:00:00 5,6 3,2 4,9 21 11 32 18 SSW 984,3 10 0,0
13.12.2019 23:00:00 5,9 3,1 5,3 18 10 29 16 SSW 984,6 10 0,0
13.12.2019 22:00:00 5,6 3,7 5,0 22 12 29 16 SW 985,2 10 0,0
13.12.2019 21:00:00 5,7 4,5 5,3 18 10 36 19 SW 985,2 10 0,1
13.12.2019 20:00:00 6,2 4,8 5,6 22 12 32 18 SW 985,3 10 0,3
13.12.2019 19:00:00 6,4 5,0 5,7 16 9 32 18 WSW 984,4 10 0,1
13.12.2019 18:00:00 6,8 5,5 6,5 16 9 29 16 W 983,4 10 0,1
13.12.2019 17:00:00 6,6 5,7 6,2 16 9 29 16 W 982,4 10 0,2
13.12.2019 16:00:00 5,3 4,8 5,1 13 7 22 12 W 980,8 6 0,5
13.12.2019 15:00:00 4,8 4,1 4,8 15 8 29 16 WNW 979,1 8 1,7
13.12.2019 14:00:00 4,9 4,2 5,0 16 9 32 18 WNW 977,4 8 0,3
13.12.2019 13:00:00 6,4 5,5 6,4 11 6 18 10 W 975,4 8 0,0
13.12.2019 12:00:00 6,6 6,0 6,6 5 3 11 6 SW 974,2 9 0,0
13.12.2019 11:00:00 5,1 4,7 5,1 8 4 14 8 SE 973,4 9 0,1
13.12.2019 10:00:00 4,4 4,0 4,3 11 6 22 12 SE 972,6 3,1 0,3
13.12.2019 09:00:00 4,1 3,5 3,9 9 5 22 12 SSE 972,1 7 0,1
13.12.2019 08:00:00 3,9 3,1 3,7 11 6 29 16 ESE 971,9 10 0,9
13.12.2019 07:00:00 3,7 2,9 3,5 13 7 25 14 ESE 972,3 10 1,4
13.12.2019 06:00:00 3,7 2,8 3,6 16 9 29 16 SE 973,1 10 0,2
13.12.2019 05:00:00 3,6 2,6 3,5 18 10 29 16 SE 974,5 10 0,0
13.12.2019 04:00:00 3,8 2,4 3,6 15 8 29 16 SE 976,1 10 0,0
13.12.2019 03:00:00 3,9 2,5 3,7 18 10 36 19 SE 977,6 10 0,2
13.12.2019 02:00:00 4,1 2,4 3,7 22 12 43 23 SSE 978,8 10 1,3
13.12.2019 01:00:00 4,5 2,6 4,1 24 13 43 23 SSE 980,6 10 1,2
13.12.2019 00:00:00 4,6 2,5 4,1 24 13 40 21 SSE 982,5 10 0,8
12.12.2019 23:00:00 4,9 1,7 4,4 26 14 40 21 SSE 984,0 10 0,0
12.12.2019 22:00:00 5,2 1,0 4,6 28 15 40 21 SSE 985,8 10 0,0
12.12.2019 21:00:00 5,1 0,7 4,7 24 13 40 21 SSE 987,6 10 0,0
12.12.2019 20:00:00 4,9 0,5 4,4 29 16 54 29 SSE 989,2 10 0,0
12.12.2019 19:00:00 4,7 0,6 4,1 26 14 43 23 SSE 990,7 10 0,0
12.12.2019 18:00:00 4,5 0,6 3,9 24 13 40 21 SSE 992,4 10 0,0
12.12.2019 17:00:00 4,5 0,8 3,9 22 12 43 23 S 993,7 10 0,0
12.12.2019 16:00:00 5,1 0,9 4,7 22 12 43 23 S 995,4 10 0,0
12.12.2019 15:00:00 5,4 1,4 5,0 22 12 36 19 S 996,7 10 0,0
12.12.2019 14:00:00 6,2 2,2 6,4 22 12 40 21 S 997,9 10 0,0
12.12.2019 13:00:00 5,4 2,6 5,9 21 11 32 18 S 999,3 10 0,0
12.12.2019 12:00:00 4,4 2,3 5,0 16 9 32 18 S 1000,5 10 0,0
12.12.2019 11:00:00 3,7 2,5 3,7 16 9 25 14 S 1001,7 10 0,0
12.12.2019 10:00:00 3,0 2,0 2,7 13 7 22 12 S 1002,2 10 0,0
12.12.2019 09:00:00 2,0 1,5 1,3 13 7 22 12 SSW 1002,4 10 0,0
12.12.2019 08:00:00 3,1 2,4 2,7 16 9 25 14 SSW 1002,3 10 0,0
12.12.2019 07:00:00 3,8 2,9 3,4 16 9 25 14 SSW 1002,3 10 0,0
12.12.2019 06:00:00 4,1 3,1 3,7 15 8 22 12 SSW 1002,2 10 0,0
12.12.2019 05:00:00 4,5 3,4 4,1 16 9 29 16 SW 1002,3 10 0,0
12.12.2019 04:00:00 4,5 3,4 4,0 16 9 22 12 SSW 1002,4 10 0,0
12.12.2019 03:00:00 4,8 3,6 4,4 13 7 22 12 S 1002,5 10 0,0
12.12.2019 02:00:00 4,6 3,5 4,2 15 8 22 12 S 1002,7 10 0,0
12.12.2019 01:00:00 4,0 3,2 3,6 13 7 22 12 S 1002,7 10 0,0
12.12.2019 00:00:00 3,9 3,2 3,0 15 8 22 12 S 1003,1 10 0,0
11.12.2019 23:00:00 4,1 3,4 3,1 11 6 22 12 S 1003,5 9 0,0
11.12.2019 22:00:00 4,4 3,8 3,8 13 7 22 12 S 1004,0 8 0,0
11.12.2019 21:00:00 4,6 4,0 4,0 13 7 22 12 S 1004,4 10 0,0
11.12.2019 20:00:00 4,8 4,3 4,2 11 6 18 10 S 1004,6 8 0,0
11.12.2019 19:00:00 5,0 4,3 4,3 11 6 18 10 S 1004,8 9 0,0
11.12.2019 18:00:00 5,3 4,5 4,7 11 6 18 10 S 1004,9 10 0,0
11.12.2019 17:00:00 5,3 4,4 4,8 11 6 22 12 S 1005,1 10 0,0
11.12.2019 16:00:00 6,0 4,8 5,7 13 7 22 12 SSW 1005,3 10 0,0
11.12.2019 15:00:00 6,5 5,3 6,5 11 6 22 12 SW 1005,6 10 0,0
11.12.2019 14:00:00 6,5 5,3 6,7 15 8 25 14 SSW 1006,1 10 0,0
11.12.2019 13:00:00 6,2 5,3 6,3 16 9 25 14 SSW 1006,9 10 0,0
11.12.2019 12:00:00 6,0 5,1 6,1 13 7 18 10 SSW 1007,5 10 0,0
11.12.2019 11:00:00 5,7 5,0 5,7 13 7 22 12 SSW 1008,4 10 0,1
11.12.2019 10:00:00 5,6 5,0 5,5 15 8 22 12 SSW 1008,7 10 0,6
11.12.2019 09:00:00 5,6 5,0 5,5 16 9 25 14 SSW 1009,0 10 0,8
11.12.2019 08:00:00 5,9 5,2 5,7 13 7 25 14 SSW 1009,1 10 0,4
11.12.2019 07:00:00 6,0 5,3 5,9 18 10 32 18 SSW 1009,5 10 1,0
11.12.2019 06:00:00 6,0 5,4 5,9 21 11 32 18 SSW 1009,5 10 1,3
11.12.2019 05:00:00 6,2 5,2 6,0 22 12 36 19 SSW 1009,8 10 0,5
11.12.2019 04:00:00 5,9 5,0 5,6 22 12 36 19 SSW 1010,1 7 0,2
11.12.2019 03:00:00 5,5 4,5 5,4 26 14 43 23 S 1010,4 7 0,0
11.12.2019 02:00:00 6,3 3,9 6,1 34 18 50 27 SSW 1010,8 8 0,0
11.12.2019 01:00:00 7,4 2,2 7,0 29 16 50 27 S 1010,9 10 0,0
11.12.2019 00:00:00 7,2 0,8 6,6 29 16 50 27 S 1011,9 10 0,0
10.12.2019 23:00:00 6,8 0,3 6,3 29 16 47 25 S 1011,9 10 0,0
10.12.2019 22:00:00 6,5 0,2 6,1 31 17 50 27 S 1013,1 10 0,0
10.12.2019 21:00:00 6,2 0,0 5,7 28 15 50 27 S 1013,9 10 0,0
10.12.2019 20:00:00 5,8 0,6 5,3 29 16 54 29 S 1015,0 10 0,0
10.12.2019 19:00:00 5,3 1,0 4,9 26 14 43 23 S 1016,1 10 0,0
10.12.2019 18:00:00 5,1 1,0 4,7 26 14 40 21 S 1017,5 10 0,0
10.12.2019 17:00:00 5,4 0,8 5,0 26 14 40 21 S 1018,4 10 0,0
10.12.2019 16:00:00 5,7 0,9 5,1 22 12 43 23 S 1019,5 10 0,0
10.12.2019 15:00:00 5,8 1,0 5,5 26 14 43 23 S 1020,8 10 0,0
10.12.2019 14:00:00 5,8 1,7 5,7 24 13 40 21 S 1021,8 10 0,0
10.12.2019 13:00:00 5,7 1,4 6,0 22 12 40 21 S 1023,2 10 0,0
10.12.2019 12:00:00 5,2 1,8 5,4 21 11 29 16 S 1024,3 10 0,0
10.12.2019 11:00:00 3,7 1,6 3,5 16 9 25 14 S 1025,2 10 0,0
10.12.2019 10:00:00 2,5 1,2 1,9 13 7 22 12 SSW 1025,6 10 0,0
10.12.2019 09:00:00 1,7 1,0 0,9 15 8 22 12 SSW 1025,6 10 0,0
10.12.2019 08:00:00 0,8 0,4 -0,2 11 6 18 10 SSW 1025,3 9 0,0
10.12.2019 07:00:00 0,7 0,0 -0,2 11 6 14 8 SSW 1024,9 10 0,0
10.12.2019 06:00:00 1,4 0,5 0,6 13 7 18 10 SW 1024,7 10 0,0
10.12.2019 05:00:00 2,8 1,7 1,5 13 7 18 10 SW 1024,4 10 0,0
10.12.2019 04:00:00 1,2 0,1 -0,8 8 4 11 6 WSW 1024,6 10 0,0
10.12.2019 03:00:00 2,5 0,9 1,3 11 6 18 10 W 1023,8 10 0,0
10.12.2019 02:00:00 2,4 0,9 0,4 11 6 14 8 WSW 1022,9 10 0,0
10.12.2019 01:00:00 3,1 1,1 1,7 8 4 22 12 W 1022,4 10 0,0
10.12.2019 00:00:00 3,3 1,6 2,0 11 6 22 12 W 1021,5 10 0,0
09.12.2019 23:00:00 4,9 2,2 4,2 13 7 36 19 WNW 1020,4 10 0,0
09.12.2019 22:00:00 4,4 1,4 3,2 13 7 25 14 WNW 1018,9 10 0,0
09.12.2019 21:00:00 5,1 1,5 3,8 11 6 25 14 WNW 1017,6 10 0,0
09.12.2019 20:00:00 5,4 1,7 4,1 13 7 22 12 NW 1015,9 10 0,0
09.12.2019 19:00:00 5,4 1,9 4,4 15 8 40 21 NW 1013,8 10 0,0
09.12.2019 18:00:00 6,5 3,6 5,7 16 9 36 19 NW 1011,4 10 0,0
09.12.2019 17:00:00 6,6 4,1 6,1 21 11 61 33 NNW 1008,6 10 0,9
09.12.2019 16:00:00 6,6 4,9 6,3 28 15 61 33 N 1005,6 6 4,6
09.12.2019 15:00:00 7,2 6,6 7,3 5 3 22 12 WNW 1002,1 5 0,2
09.12.2019 14:00:00 7,6 6,7 7,7 15 8 36 19 WSW 1000,1 4,9 0,4
09.12.2019 13:00:00 7,5 6,3 7,5 16 9 29 16 WSW 999,9 5 0,6
09.12.2019 12:00:00 6,9 5,6 6,7 22 12 32 18 W 999,3 9 1,2
09.12.2019 11:00:00 7,1 6,0 7,0 18 10 29 16 WSW 998,1 6 0,2
09.12.2019 10:00:00 7,2 6,0 6,6 18 10 43 23 WSW 996,6 10 0,9
09.12.2019 09:00:00 7,0 6,1 6,8 26 14 40 21 WSW 995,0 7 0,4
09.12.2019 08:00:00 6,7 5,6 6,4 26 14 43 23 SW 993,3 10 0,5
09.12.2019 07:00:00 6,2 5,3 6,0 29 16 43 23 SSW 992,8 7 2,7
09.12.2019 06:00:00 6,3 4,6 6,0 24 13 40 21 SSW 993,1 9 2,3
09.12.2019 05:00:00 6,9 4,0 6,5 26 14 43 23 SSW 994,2 10 0,1
09.12.2019 04:00:00 7,5 3,8 7,0 26 14 43 23 SSW 995,4 10 0,0
09.12.2019 03:00:00 7,5 3,4 6,8 34 18 50 27 SSW 996,2 10 0,0
09.12.2019 02:00:00 7,3 3,7 6,7 31 17 50 27 SSW 996,9 10 0,0
09.12.2019 01:00:00 7,1 3,9 6,6 34 18 50 27 SSW 997,4 10 0,0

tt = temperature
td = dewpoint
tt 5cm = temperature 5cm
ff = wind speed
fx = gusts
dd = wind direction
ppp = reduced air pressure
vv = visibility
rr = precipitation

Next stations